TimeEDT,TemperatureF,Dew PointF,Humidity,Sea Level PressureIn,VisibilityMPH,Wind Direction,Wind SpeedMPH,Gust SpeedMPH,PrecipitationIn,Events,Conditions,WindDirDegrees,DateUTC
12:25 AM,33.6,-9999,N/A,30.20,-9999.0,Calm,Calm,-,N/A,,Unknown,0,2013-04-15 04:25:00
1:25 AM,33.4,-9999,N/A,30.21,-9999.0,Calm,Calm,-,N/A,,Unknown,0,2013-04-15 05:25:00
2:25 AM,33.1,-9999,N/A,30.23,-9999.0,Calm,Calm,-,N/A,,Unknown,0,2013-04-15 06:25:00
3:25 AM,32.9,-9999,N/A,30.24,-9999.0,Calm,Calm,-,N/A,,Unknown,0,2013-04-15 07:25:00
4:25 AM,32.7,-9999,N/A,30.27,-9999.0,Calm,Calm,-,N/A,,Unknown,0,2013-04-15 08:25:00
5:25 AM,32.7,-9999,N/A,30.29,-9999.0,Calm,Calm,-,0.00,,Unknown,0,2013-04-15 09:25:00
6:25 AM,31.8,-9999,N/A,30.31,-9999.0,Variable,3.5,-,N/A,,Unknown,0,2013-04-15 10:25:00
7:25 AM,32.0,-9999,N/A,30.34,-9999.0,Calm,Calm,-,N/A,,Unknown,0,2013-04-15 11:25:00
8:25 AM,32.5,-9999,N/A,30.37,-9999.0,Calm,Calm,-,N/A,,Unknown,0,2013-04-15 12:25:00
9:25 AM,33.8,-9999,N/A,30.39,-9999.0,Variable,3.5,-,N/A,,Unknown,0,2013-04-15 13:25:00
10:25 AM,36.1,31.8,84,30.40,-9999.0,Calm,Calm,-,N/A,,Unknown,0,2013-04-15 14:25:00
11:25 AM,39.2,31.8,75,30.40,-9999.0,Variable,5.8,-,N/A,,Unknown,0,2013-04-15 15:25:00
12:25 PM,42.3,34.5,74,30.38,-9999.0,Calm,Calm,-,N/A,,Unknown,0,2013-04-15 16:25:00
1:25 PM,44.4,31.1,60,30.37,-9999.0,Calm,Calm,-,N/A,,Unknown,0,2013-04-15 17:25:00
2:25 PM,45.5,29.5,54,30.35,-9999.0,Calm,Calm,-,N/A,,Unknown,0,2013-04-15 18:25:00
3:25 PM,47.1,29.7,51,30.33,-9999.0,Variable,2.3,-,N/A,,Unknown,0,2013-04-15 19:25:00
4:25 PM,48.4,33.1,56,30.31,-9999.0,Variable,4.6,-,N/A,,Unknown,0,2013-04-15 20:25:00
5:25 PM,47.7,29.1,49,30.30,-9999.0,Variable,5.8,-,N/A,,Unknown,0,2013-04-15 21:25:00
6:25 PM,46.9,29.8,51,30.30,-9999.0,Variable,2.3,-,N/A,,Unknown,0,2013-04-15 22:25:00
7:25 PM,39.6,31.8,74,30.31,-9999.0,Calm,Calm,-,N/A,,Unknown,0,2013-04-15 23:25:00
8:25 PM,42.3,32.2,67,30.33,-9999.0,Variable,3.5,-,N/A,,Unknown,0,2013-04-16 00:25:00
9:25 PM,41.9,30.2,63,30.31,-9999.0,Variable,3.5,-,N/A,,Unknown,0,2013-04-16 01:25:00
10:25 PM,39.7,30.2,69,30.30,-9999.0,Calm,Calm,-,N/A,,Unknown,0,2013-04-16 02:25:00
11:25 PM,39.9,30.9,70,30.31,-9999.0,Variable,4.6,-,N/A,,Unknown,0,2013-04-16 03:25:00